Weather History for Santee, CA

Change the Weather History Date:

Friday, November 23, 2012

  Actual Average Record
Temperature  
Mean Temperature 64 °F -  
Max Temperature 84 °F 73 °F 84 °F (2012)
Min Temperature 44 °F 44 °F 35 °F (1999)
Degree Days  
Heating Degree Days 1    
Growing Degree Days 14 (Base 50)    
Moisture  
Dew Point 47 °F    
Average Humidity 90    
Maximum Humidity 100    
Minimum Humidity 18    
Precipitation  
Precipitation 0.00 in - - ()
Sea Level Pressure  
Sea Level Pressure 30.12 in    
Wind  
Wind Speed 1 mph (WNW)    
Max Wind Speed 5 mph    
Max Gust Speed -    
Visibility 6 miles    
Events Fog    
Averages and records for this station are not official NWS values.
T = Trace of Precipitation, MM = Missing Value Source: NWS Daily Summary

Daily Weather History Graph

Daily Weather History Graph

Search for Another Location

Airport:

Trip Planner

Search our weather history database for the weather conditions in past years. The results will help you decide how hot, cold, wet, or windy it might be!

Date:

Astronomy

Nov. 23, 2012 Rise Set
Actual Time 6:25 AM PST 4:42 PM PST
Civil Twilight 5:59 AM PST 5:09 PM PST
Nautical Twilight 5:29 AM PST 5:39 PM PST
Astronomical Twilight 4:59 AM PST 6:09 PM PST
Moon 1:48 PM PST (11/23) 2:01 AM PST (11/23)
Length of Visible Light 11h 10m
Length of Day
10h 16m
Waxing Gibbous, 80% of the Moon is Illuminated
Nov 23
Waxing Gibbous
Nov 28
Full
Dec 6
Last Quarter
Dec 13
New
Dec 19
First Quarter

Hourly Weather History & Observations

Time (PST) Temp. Windchill Dew Point Humidity Pressure Visibility Wind Dir Wind Speed Gust Speed Precip Events Conditions
12:15 AM 50.0 °F - 50.0 °F 100% 30.13 in 10.0 mi Calm Calm - N/A   Clear
12:35 AM 48.2 °F - 48.2 °F 100% 30.13 in 10.0 mi WNW 4.6 mph - N/A   Clear
12:55 AM 46.4 °F 44.3 °F 46.4 °F 100% 30.13 in 8.0 mi WNW 4.6 mph - N/A   Clear
1:15 AM 46.4 °F - 46.4 °F 100% 30.13 in 7.0 mi Calm Calm - N/A   Partly Cloudy
1:35 AM 46.4 °F - 46.4 °F 100% 30.13 in 7.0 mi Calm Calm - N/A   Clear
1:55 AM 46.4 °F - 46.4 °F 100% 30.13 in 7.0 mi Calm Calm - N/A   Clear
2:15 AM 46.4 °F - 46.4 °F 100% 30.14 in 7.0 mi Calm Calm - N/A   Clear
2:35 AM 46.4 °F - 46.4 °F 100% 30.14 in 0.5 mi Calm Calm - N/A Fog Fog
2:55 AM 46.4 °F - 46.4 °F 100% 30.14 in 0.2 mi Calm Calm - N/A Fog Fog
3:15 AM 46.4 °F - 46.4 °F 100% 30.14 in 0.5 mi Calm Calm - N/A Fog Fog
3:35 AM 46.4 °F - 46.4 °F 100% 30.13 in 0.2 mi Calm Calm - N/A Fog Fog
3:55 AM 46.4 °F - 46.4 °F 100% 30.13 in 0.2 mi Calm Calm - N/A Fog Fog
4:15 AM 46.4 °F - 46.4 °F 100% 30.13 in 0.2 mi Calm Calm - N/A Fog Fog
4:35 AM 46.4 °F - 46.4 °F 100% 30.13 in 0.2 mi Calm Calm - N/A Fog Fog
4:55 AM 46.4 °F - 46.4 °F 100% 30.13 in 0.2 mi Calm Calm - N/A Fog Fog
5:15 AM 46.4 °F - 46.4 °F 100% 30.13 in 0.2 mi Calm Calm - N/A Fog Fog
6:47 AM 44.6 °F - 44.6 °F 100% 30.14 in 0.2 mi Calm Calm - N/A   Overcast
11:47 AM 84.2 °F - 35.6 °F 18% 30.10 in 25.0 mi Calm Calm - N/A   Clear
4:47 PM 69.8 °F - 53.6 °F 56% 30.07 in 12.0 mi Calm Calm - N/A   Clear
6:47 PM 60.8 °F - 51.8 °F 72% 30.09 in 12.0 mi Calm Calm - N/A   Clear
8:15 PM 55.4 °F - 50.0 °F 82% 30.11 in 7.0 mi Calm Calm - N/A   Clear
8:47 PM 55.4 °F - 48.2 °F 77% 30.11 in 12.0 mi Calm Calm - N/A   Clear
8:55 PM 53.6 °F - 48.2 °F 82% 30.12 in 7.0 mi WNW 3.5 mph - N/A   Clear
9:15 PM 53.6 °F - 48.2 °F 82% 30.12 in 8.0 mi NW 3.5 mph - N/A   Clear
9:35 PM 53.6 °F - 48.2 °F 82% 30.11 in 8.0 mi Calm Calm - N/A   Clear
9:55 PM 51.8 °F - 48.2 °F 88% 30.12 in 5.0 mi Calm Calm - N/A   Clear
10:15 PM 51.8 °F - 48.2 °F 88% 30.11 in 5.0 mi Calm Calm - N/A   Clear
10:35 PM 51.8 °F - 48.2 °F 88% 30.12 in 7.0 mi Calm Calm - N/A   Clear
10:55 PM 51.8 °F - 46.4 °F 82% 30.12 in 9.0 mi Calm Calm - N/A   Clear
11:35 PM 50.0 °F - 48.2 °F 94% 30.12 in 9.0 mi Calm Calm - N/A   Clear